IU1OPQ-3 Weather Reports


time (UTC)temp
C
wind
direction
speed
KPH
gust
KPH
rain 1hr
cm
rain 24hr
cm
rain mn
cm
humidity
%
barometer
mb
20260906114001 26 212 9.7 12.9 0.00 0.00 0.00 51 1023.1
20260906112001 26 227 6.4 11.3 0.00 0.00 0.00 54 1023.3
20260906110000 25 283 9.7 14.5 0.00 0.00 0.00 58 1023.2
20260906104000 25 234 9.7 14.5 0.00 0.00 0.00 62 1023.2
20260906102001 24 253 12.9 14.5 0.00 0.00 0.00 64 1023.3
20260906100000 24 264 9.7 16.1 0.00 0.00 0.00 64 1023.7
20260906094000 23 266 6.4 17.7 0.00 0.00 0.00 66 1023.6
20260906092001 23 241 9.7 14.5 0.00 0.00 0.00 67 1023.5
20260906090001 22 285 6.4 9.7 0.00 0.00 0.00 69 1023.5
20260906084000 22 262 6.4 12.9 0.00 0.00 0.00 70 1023.3
20260906082000 22 240 8.0 8.0 0.00 0.00 0.00 71 1023.4
20260906080001 22 191 8.0 9.7 0.00 0.00 0.00 71 1023.3
20260906074001 21 251 6.4 14.5 0.00 0.00 0.00 70 1023.2
20260906072001 21 204 9.7 12.9 0.00 0.00 0.00 68 1023.0
20260906070000 21 243 11.3 11.3 0.00 0.00 0.00 68 1022.8
20260906064001 21 249 6.4 9.7 0.00 0.00 0.00 69 1022.6
20260906062001 21 243 4.8 9.7 0.00 0.00 0.00 69 1022.7
20260906060000 21 218 4.8 9.7 0.00 0.00 0.00 68 1022.2
20260906054000 20 230 8.0 8.0 0.00 0.00 0.00 69 1022.0
20260906052000 21 224 9.7 11.3 0.00 0.00 0.00 67 1021.7
20260906050000 21 218 8.0 14.5 0.00 0.00 0.00 66 1021.4
20260906044001 21 259 9.7 9.7 0.00 0.00 0.00 65 1021.4
20260906042000 22 261 6.4 12.9 0.00 0.00 0.00 64 1021.1
20260906040000 22 265 4.8 14.5 0.00 0.00 0.00 63 1021.0
20260906034000 22 194 11.3 14.5 0.00 0.00 0.00 62 1020.8
20260906032001 22 234 9.7 19.3 0.00 0.00 0.00 62 1020.7
20260906030000 23 218 6.4 22.5 0.00 0.00 0.00 62 1020.8
20260906024000 23 240 4.8 9.7 0.00 0.00 0.00 64 1020.5
20260906022000 23 230 6.4 11.3 0.00 0.00 0.00 63 1020.5
20260906020000 23 245 11.3 11.3 0.00 0.00 0.00 61 1020.5
20260906014000 23 191 11.3 12.9 0.00 0.00 0.00 60 1020.3
20260906012000 23 211 8.0 9.7 0.00 0.00 0.00 58 1020.5
20260906010001 23 230 0.0 4.8 0.00 0.00 0.00 56 1020.4
20260906004001 23 309 0.0 1.6 0.00 0.00 0.00 56 1020.6
20260906002000 24 256 3.2 8.0 0.00 0.00 0.00 54 1020.4
20260906000001 24 265 3.2 4.8 0.00 0.00 0.00 54 1020.6
20260905234001 25 295 1.6 4.8 0.00 0.00 0.00 51 1020.4
20260905232001 25 224 1.6 3.2 0.00 0.00 0.00 51 1020.2
20260905230000 25 183 3.2 3.2 0.00 0.00 0.00 52 1020.2
20260905224000 23 95 3.2 4.8 0.00 0.00 0.00 58 1020.1
20260905222001 24 103 6.4 8.0 0.00 0.00 0.00 56 1020.1
20260905220001 23 69 0.0 8.0 0.00 0.00 0.00 60 1020.1
20260905214000 23 70 4.8 6.4 0.00 0.00 0.00 57 1020.0
20260905212001 24 123 3.2 6.4 0.00 0.00 0.00 55 1019.9
20260905210000 23 115 4.8 9.7 0.00 0.00 0.00 58 1019.8
20260905204001 24 143 11.3 17.7 0.00 0.00 0.00 57 1019.5
20260905202000 24 109 8.0 20.9 0.00 0.00 0.00 55 1019.2
20260905200000 24 84 14.5 22.5 0.00 0.00 0.00 55 1019.1
20260905194000 24 35 11.3 17.7 0.00 0.00 0.00 54 1018.7
20260905192001 24 78 12.9 20.9 0.00 0.00 0.00 55 1018.6
20260905190000 24 16 6.4 12.9 0.00 0.00 0.00 55 1018.5
20260905184001 25 46 4.8 16.1 0.00 0.00 0.00 54 1018.4
20260905182000 25 44 9.7 14.5 0.00 0.00 0.00 54 1018.0
20260905180000 25 212 1.6 12.9 0.00 0.00 0.00 54 1018.0
20260905174001 26 73 6.4 14.5 0.00 0.00 0.00 52 1017.9
20260905172001 26 213 3.2 16.1 0.00 0.00 0.00 50 1017.9
20260905170000 27 107 3.2 14.5 0.00 0.00 0.00 49 1017.8
20260905164000 27 332 4.8 16.1 0.00 0.00 0.00 49 1017.7
20260905162001 28 98 11.3 17.7 0.00 0.00 0.00 49 1017.9
20260905160001 28 109 6.4 14.5 0.00 0.00 0.00 50 1017.7
20260905154000 29 72 6.4 17.7 0.00 0.00 0.00 50 1017.8
20260905152001 29 59 4.8 17.7 0.00 0.00 0.00 49 1017.7
20260905150000 30 84 4.8 14.5 0.00 0.00 0.00 47 1017.7
20260905144001 30 65 4.8 14.5 0.00 0.00 0.00 45 1017.7
20260905142001 31 176 6.4 11.3 0.00 0.00 0.00 46 1017.9
20260905140001 31 44 4.8 14.5 0.00 0.00 0.00 46 1018.2
20260905134001 31 69 8.0 14.5 0.00 0.00 0.00 45 1018.2
20260905132000 31 27 1.6 8.0 0.00 0.00 0.00 40 1018.3
20260905130000 31 67 4.8 8.0 0.00 0.00 0.00 40 1018.4
20260905124001 32 145 0.0 4.8 0.00 0.00 0.00 38 1018.5
20260905122000 30 132 3.2 8.0 0.00 0.00 0.00 43 1018.5
20260905120001 31 2 3.2 6.4 0.00 0.00 0.00 44 1018.6